| time (UTC) | temp F | wind direction | speed knots | gust knots | rain 1hr in | rain 24hr in | rain mn in | humidity % | barometer mb |
| 20260831191555 | 65 | 64 | 5.2 | 7.8 | 0.00 | 0.00 | 0.00 | 49 | 1034.5 |
| 20260831191050 | 64 | 242 | 1.7 | 5.2 | 0.00 | 0.00 | 0.00 | 50 | 1034.6 |
| 20260831190546 | 64 | 348 | 5.2 | 6.1 | 0.00 | 0.00 | 0.00 | 50 | 1035.0 |
| 20260831190044 | 64 | 1 | 0.9 | 6.1 | 0.00 | 0.00 | 0.00 | 51 | 1035.0 |
| 20260831185540 | 64 | 293 | 0.9 | 1.7 | 0.00 | 0.00 | 0.00 | 53 | 1034.9 |
| 20260831185036 | 64 | 290 | 2.6 | 3.5 | 0.00 | 0.00 | 0.00 | 51 | 1034.9 |
| 20260831184530 | 65 | 94 | 1.7 | 6.1 | 0.00 | 0.00 | 0.00 | 51 | 1035.2 |
| 20260831184026 | 64 | 59 | 4.3 | 6.1 | 0.00 | 0.00 | 0.00 | 52 | 1034.9 |
| 20260831183525 | 64 | 53 | 1.7 | 3.5 | 0.00 | 0.00 | 0.00 | 53 | 1035.2 |
| 20260831183024 | 63 | 259 | 0.9 | 2.6 | 0.00 | 0.00 | 0.00 | 53 | 1035.2 |
| 20260831182519 | 63 | 219 | 1.7 | 1.7 | 0.00 | 0.00 | 0.00 | 52 | 1035.2 |
| 20260831182014 | 62 | 275 | 1.7 | 3.5 | 0.00 | 0.00 | 0.00 | 53 | 1035.2 |
| 20260831181509 | 62 | 3 | 1.7 | 2.6 | 0.00 | 0.00 | 0.00 | 54 | 1035.2 |
| 20260831181004 | 63 | 277 | 0.9 | 2.6 | 0.00 | 0.00 | 0.00 | 53 | 1035.3 |
| 20260831180458 | 63 | 97 | 2.6 | 6.1 | 0.00 | 0.00 | 0.00 | 52 | 1035.0 |
| 20260831175958 | 64 | 318 | 1.7 | 3.5 | 0.00 | 0.00 | 0.00 | 51 | 1035.4 |
| 20260831175454 | 64 | 201 | 1.7 | 3.5 | 0.00 | 0.00 | 0.00 | 50 | 1035.4 |
| 20260831174950 | 65 | 280 | 0.9 | 5.2 | 0.00 | 0.00 | 0.00 | 49 | 1035.4 |
| 20260831174440 | 64 | 262 | 0.0 | 0.9 | 0.00 | 0.00 | 0.00 | 51 | 1035.3 |
| 20260831173939 | 63 | 274 | 1.7 | 2.6 | 0.00 | 0.00 | 0.00 | 53 | 1035.4 |
| 20260831173438 | 63 | 103 | 1.7 | 3.5 | 0.00 | 0.00 | 0.00 | 51 | 1035.4 |
| 20260831172934 | 63 | 153 | 0.9 | 5.2 | 0.00 | 0.00 | 0.00 | 52 | 1035.4 |
| 20260831172429 | 63 | 224 | 1.7 | 1.7 | 0.00 | 0.00 | 0.00 | 49 | 1035.6 |
| 20260831171924 | 63 | 261 | 0.9 | 2.6 | 0.00 | 0.00 | 0.00 | 53 | 1035.4 |
| 20260831171420 | 62 | 221 | 0.9 | 2.6 | 0.00 | 0.00 | 0.00 | 51 | 1035.6 |
| 20260831170916 | 63 | 294 | 0.9 | 1.7 | 0.00 | 0.00 | 0.00 | 51 | 1035.3 |
| 20260831170412 | 62 | 286 | 2.6 | 2.6 | 0.00 | 0.00 | 0.00 | 50 | 1035.4 |
| 20260831165909 | 63 | 44 | 1.7 | 5.2 | 0.00 | 0.00 | 0.00 | 51 | 1035.6 |
| 20260831165405 | 63 | 59 | 2.6 | 7.0 | 0.00 | 0.00 | 0.00 | 50 | 1035.3 |
| 20260831164901 | 63 | 236 | 2.6 | 7.0 | 0.00 | 0.00 | 0.00 | 50 | 1035.4 |
| 20260831164357 | 64 | 282 | 0.9 | 1.7 | 0.00 | 0.00 | 0.00 | 49 | 1035.2 |
| 20260831163852 | 64 | 320 | 1.7 | 3.5 | 0.00 | 0.00 | 0.00 | 49 | 1035.3 |
| 20260831163347 | 64 | 128 | 2.6 | 2.6 | 0.00 | 0.00 | 0.00 | 47 | 1035.4 |
| 20260831162846 | 64 | 238 | 0.9 | 1.7 | 0.00 | 0.00 | 0.00 | 48 | 1035.2 |
| 20260831162342 | 65 | 260 | 0.0 | 3.5 | 0.00 | 0.00 | 0.00 | 47 | 1035.2 |
| 20260831161840 | 65 | 230 | 0.0 | 0.9 | 0.00 | 0.00 | 0.00 | 46 | 1035.4 |
| 20260831161336 | 63 | 346 | 1.7 | 2.6 | 0.00 | 0.00 | 0.00 | 48 | 1035.2 |
| 20260831160831 | 64 | 242 | 0.0 | 0.9 | 0.00 | 0.00 | 0.00 | 49 | 1035.2 |
| 20260831160326 | 63 | 274 | 0.0 | 2.6 | 0.00 | 0.00 | 0.00 | 49 | 1034.9 |
| 20260831155820 | 63 | 254 | 0.0 | 1.7 | 0.00 | 0.00 | 0.00 | 49 | 1035.2 |
| 20260831155315 | 62 | 259 | 0.0 | 2.6 | 0.00 | 0.00 | 0.00 | 48 | 1035.2 |
| 20260831154811 | 64 | 250 | 0.0 | 0.9 | 0.00 | 0.00 | 0.00 | 46 | 1035.2 |
| 20260831154307 | 63 | 246 | 0.0 | 0.9 | 0.00 | 0.00 | 0.00 | 46 | 1034.8 |
| 20260831153805 | 63 | 231 | 0.9 | 2.6 | 0.00 | 0.00 | 0.00 | 46 | 1035.0 |
| 20260831153301 | 63 | 230 | 0.9 | 3.5 | 0.00 | 0.00 | 0.00 | 45 | 1034.9 |
| 20260831152757 | 63 | 236 | 5.2 | 6.1 | 0.00 | 0.00 | 0.00 | 45 | 1034.6 |
| 20260831152253 | 64 | 254 | 0.9 | 2.6 | 0.00 | 0.00 | 0.00 | 46 | 1035.0 |
| 20260831151748 | 64 | 291 | 1.7 | 2.6 | 0.00 | 0.00 | 0.00 | 44 | 1034.6 |
| 20260831151247 | 64 | 223 | 0.0 | 0.9 | 0.00 | 0.00 | 0.00 | 46 | 1034.6 |
| 20260831150742 | 64 | 23 | 1.7 | 2.6 | 0.00 | 0.00 | 0.00 | 50 | 1034.8 |
| 20260831150238 | 65 | 279 | 0.9 | 2.6 | 0.00 | 0.00 | 0.00 | 44 | 1034.8 |
| 20260831145736 | 65 | 234 | 0.9 | 1.7 | 0.00 | 0.00 | 0.00 | 47 | 1034.8 |
| 20260831145233 | 64 | 248 | 0.9 | 1.7 | 0.00 | 0.00 | 0.00 | 45 | 1034.6 |
| 20260831144729 | 62 | 247 | 0.0 | 0.9 | 0.00 | 0.00 | 0.00 | 46 | 1034.9 |
| 20260831144225 | 62 | 237 | 0.9 | 5.2 | 0.00 | 0.00 | 0.00 | 46 | 1035.0 |
| 20260831143724 | 61 | 263 | 0.0 | 0.0 | 0.00 | 0.00 | 0.00 | 47 | 1034.9 |
| 20260831143220 | 61 | 239 | 0.9 | 0.9 | 0.00 | 0.00 | 0.00 | 51 | 1034.8 |
| 20260831142715 | 60 | 257 | 0.9 | 2.6 | 0.00 | 0.00 | 0.00 | 49 | 1034.6 |
| 20260831142211 | 60 | 229 | 1.7 | 1.7 | 0.00 | 0.00 | 0.00 | 51 | 1035.0 |
| 20260831141710 | 59 | 244 | 0.0 | 0.0 | 0.00 | 0.00 | 0.00 | 53 | 1034.8 |
| 20260831141205 | 58 | 250 | 0.0 | 0.9 | 0.00 | 0.00 | 0.00 | 61 | 1034.8 |
| 20260831140704 | 57 | 243 | 0.9 | 1.7 | 0.00 | 0.00 | 0.00 | 58 | 1034.5 |
| 20260831140159 | 56 | 240 | 1.7 | 1.7 | 0.00 | 0.00 | 0.00 | 59 | 1034.6 |
| 20260831135657 | 55 | 233 | 0.9 | 1.7 | 0.00 | 0.00 | 0.00 | 64 | 1034.4 |
| 20260831135153 | 55 | 234 | 0.9 | 1.7 | 0.00 | 0.00 | 0.00 | 62 | 1034.3 |
| 20260831134649 | 55 | 240 | 0.9 | 1.7 | 0.00 | 0.00 | 0.00 | 62 | 1034.1 |
| 20260831134144 | 54 | 219 | 1.7 | 1.7 | 0.00 | 0.00 | 0.00 | 63 | 1034.3 |
| 20260831133643 | 54 | 215 | 1.7 | 1.7 | 0.00 | 0.00 | 0.00 | 63 | 1034.0 |
| 20260831133138 | 54 | 237 | 0.9 | 1.7 | 0.00 | 0.00 | 0.00 | 63 | 1034.0 |
| 20260831132634 | 54 | 240 | 0.9 | 0.9 | 0.00 | 0.00 | 0.00 | 61 | 1033.9 |
| 20260831132133 | 54 | 232 | 1.7 | 1.7 | 0.00 | 0.00 | 0.00 | 59 | 1033.9 |
| 20260831131628 | 55 | 218 | 1.7 | 2.6 | 0.00 | 0.00 | 0.00 | 57 | 1033.9 |
| 20260831131124 | 55 | 233 | 1.7 | 2.6 | 0.00 | 0.00 | 0.00 | 54 | 1033.7 |
| 20260831130619 | 55 | 222 | 0.9 | 2.6 | 0.00 | 0.00 | 0.00 | 53 | 1033.6 |
| 20260831130115 | 55 | 235 | 0.9 | 0.9 | 0.00 | 0.00 | 0.00 | 57 | 1033.5 |
| 20260831125613 | 55 | 222 | 1.7 | 1.7 | 0.00 | 0.00 | 0.00 | 56 | 1033.6 |
| 20260831125109 | 55 | 223 | 1.7 | 2.6 | 0.00 | 0.00 | 0.00 | 56 | 1033.7 |
| 20260831124605 | 53 | 228 | 1.7 | 2.6 | 0.00 | 0.00 | 0.00 | 57 | 1033.5 |
| 20260831124101 | 54 | 222 | 1.7 | 2.6 | 0.00 | 0.00 | 0.00 | 57 | 1033.3 |
| 20260831123600 | 53 | 226 | 1.7 | 2.6 | 0.00 | 0.00 | 0.00 | 60 | 1033.6 |
| 20260831123054 | 54 | 213 | 1.7 | 2.6 | 0.00 | 0.00 | 0.00 | 58 | 1033.5 |
| 20260831122549 | 54 | 218 | 1.7 | 2.6 | 0.00 | 0.00 | 0.00 | 58 | 1033.3 |
| 20260831122044 | 55 | 242 | 0.9 | 2.6 | 0.00 | 0.00 | 0.00 | 57 | 1033.2 |
| 20260831121539 | 56 | 211 | 1.7 | 2.6 | 0.00 | 0.00 | 0.00 | 56 | 1033.1 |
| 20260831121035 | 55 | 189 | 3.5 | 3.5 | 0.00 | 0.00 | 0.00 | 53 | 1033.1 |
| 20260831120534 | 55 | 224 | 1.7 | 3.5 | 0.00 | 0.00 | 0.00 | 54 | 1033.2 |
| 20260831120030 | 55 | 218 | 1.7 | 2.6 | 0.00 | 0.00 | 0.00 | 55 | 1032.9 |
| 20260831115526 | 55 | 196 | 1.7 | 3.5 | 0.00 | 0.00 | 0.00 | 56 | 1033.2 |
| 20260831115021 | 55 | 217 | 1.7 | 5.2 | 0.00 | 0.00 | 0.00 | 59 | 1033.1 |
| 20260831114520 | 54 | 212 | 2.6 | 2.6 | 0.00 | 0.00 | 0.00 | 56 | 1032.9 |
| 20260831114016 | 53 | 201 | 2.6 | 3.5 | 0.00 | 0.00 | 0.00 | 58 | 1032.9 |
| 20260831113514 | 54 | 208 | 2.6 | 2.6 | 0.00 | 0.00 | 0.00 | 59 | 1033.2 |
| 20260831113010 | 54 | 216 | 1.7 | 2.6 | 0.00 | 0.00 | 0.00 | 58 | 1033.3 |
| 20260831112509 | 54 | 211 | 2.6 | 2.6 | 0.00 | 0.00 | 0.00 | 59 | 1032.8 |
| 20260831112004 | 54 | 232 | 2.6 | 2.6 | 0.00 | 0.00 | 0.00 | 55 | 1032.9 |
| 20260831111501 | 55 | 202 | 2.6 | 3.5 | 0.00 | 0.00 | 0.00 | 57 | 1033.2 |
| 20260831110956 | 54 | 210 | 2.6 | 2.6 | 0.00 | 0.00 | 0.00 | 61 | 1033.1 |
| 20260831110451 | 55 | 218 | 2.6 | 3.5 | 0.00 | 0.00 | 0.00 | 56 | 1032.7 |
| 20260831105950 | 54 | 207 | 1.7 | 2.6 | 0.00 | 0.00 | 0.00 | 59 | 1032.8 |
| 20260831105445 | 54 | 232 | 1.7 | 3.5 | 0.00 | 0.00 | 0.00 | 57 | 1032.9 |
| 20260831104945 | 54 | 202 | 2.6 | 2.6 | 0.00 | 0.00 | 0.00 | 56 | 1032.9 |
| 20260831104442 | 54 | 217 | 3.5 | 3.5 | 0.00 | 0.00 | 0.00 | 55 | 1032.8 |
| 20260831103937 | 52 | 242 | 2.6 | 3.5 | 0.00 | 0.00 | 0.00 | 58 | 1033.1 |
| 20260831103432 | 52 | 212 | 2.6 | 2.6 | 0.00 | 0.00 | 0.00 | 61 | 1032.7 |
| 20260831102928 | 52 | 205 | 1.7 | 2.6 | 0.00 | 0.00 | 0.00 | 64 | 1032.8 |
| 20260831102427 | 52 | 237 | 0.0 | 0.9 | 0.00 | 0.00 | 0.00 | 58 | 1032.5 |
| 20260831101922 | 51 | 230 | 1.7 | 2.6 | 0.00 | 0.00 | 0.00 | 64 | 1032.8 |
| 20260831101418 | 51 | 208 | 2.6 | 2.6 | 0.00 | 0.00 | 0.00 | 66 | 1032.8 |
| 20260831100914 | 51 | 204 | 2.6 | 2.6 | 0.00 | 0.00 | 0.00 | 65 | 1032.5 |
| 20260831100409 | 51 | 209 | 2.6 | 2.6 | 0.00 | 0.00 | 0.00 | 65 | 1032.5 |
| 20260831095904 | 51 | 205 | 2.6 | 2.6 | 0.00 | 0.00 | 0.00 | 65 | 1032.4 |
| 20260831095403 | 51 | 208 | 2.6 | 2.6 | 0.00 | 0.00 | 0.00 | 65 | 1032.5 |
| 20260831094859 | 51 | 205 | 2.6 | 2.6 | 0.00 | 0.00 | 0.00 | 67 | 1032.3 |
| 20260831094354 | 50 | 209 | 2.6 | 2.6 | 0.00 | 0.00 | 0.00 | 67 | 1032.4 |
| 20260831093850 | 50 | 204 | 2.6 | 2.6 | 0.00 | 0.00 | 0.00 | 68 | 1032.1 |
| 20260831093345 | 51 | 212 | 1.7 | 2.6 | 0.00 | 0.00 | 0.00 | 67 | 1032.3 |
| 20260831092842 | 51 | 209 | 2.6 | 2.6 | 0.00 | 0.00 | 0.00 | 66 | 1032.1 |
| 20260831092337 | 51 | 221 | 1.7 | 2.6 | 0.00 | 0.00 | 0.00 | 66 | 1032.1 |
| 20260831091832 | 52 | 226 | 1.7 | 1.7 | 0.00 | 0.00 | 0.00 | 66 | 1032.3 |
| 20260831091328 | 52 | 236 | 0.9 | 1.7 | 0.00 | 0.00 | 0.00 | 67 | 1032.1 |
| 20260831090822 | 53 | 245 | 0.9 | 1.7 | 0.00 | 0.00 | 0.00 | 64 | 1032.1 |
| 20260831090318 | 53 | 226 | 1.7 | 1.7 | 0.00 | 0.00 | 0.00 | 65 | 1032.0 |
| 20260831085814 | 52 | 238 | 2.6 | 3.5 | 0.00 | 0.00 | 0.00 | 66 | 1032.0 |
| 20260831085309 | 53 | 228 | 1.7 | 3.5 | 0.00 | 0.00 | 0.00 | 63 | 1032.0 |
| 20260831084804 | 52 | 219 | 1.7 | 3.5 | 0.00 | 0.00 | 0.00 | 63 | 1032.1 |
| 20260831084300 | 51 | 240 | 0.9 | 2.6 | 0.00 | 0.00 | 0.00 | 69 | 1032.1 |
| 20260831083755 | 51 | 210 | 1.7 | 3.5 | 0.00 | 0.00 | 0.00 | 68 | 1032.3 |
| 20260831083246 | 51 | 226 | 1.7 | 1.7 | 0.00 | 0.00 | 0.00 | 67 | 1032.0 |
| 20260831082744 | 51 | 220 | 1.7 | 2.6 | 0.00 | 0.00 | 0.00 | 68 | 1032.3 |
| 20260831082239 | 51 | 212 | 1.7 | 2.6 | 0.00 | 0.00 | 0.00 | 67 | 1032.3 |
| 20260831081735 | 51 | 213 | 2.6 | 2.6 | 0.00 | 0.00 | 0.00 | 68 | 1032.4 |
| 20260831081230 | 51 | 219 | 1.7 | 2.6 | 0.00 | 0.00 | 0.00 | 65 | 1032.5 |
| 20260831080725 | 51 | 211 | 2.6 | 2.6 | 0.00 | 0.00 | 0.00 | 65 | 1032.3 |
| 20260831080220 | 51 | 227 | 0.9 | 2.6 | 0.00 | 0.00 | 0.00 | 68 | 1032.4 |
| 20260831075716 | 51 | 224 | 1.7 | 1.7 | 0.00 | 0.00 | 0.00 | 67 | 1032.4 |
| 20260831075211 | 52 | 217 | 1.7 | 2.6 | 0.00 | 0.00 | 0.00 | 66 | 1032.4 |
| 20260831074710 | 52 | 212 | 1.7 | 2.6 | 0.00 | 0.00 | 0.00 | 67 | 1032.7 |
| 20260831074204 | 52 | 225 | 1.7 | 1.7 | 0.00 | 0.00 | 0.00 | 65 | 1032.3 |
| 20260831073659 | 52 | 215 | 1.7 | 1.7 | 0.00 | 0.00 | 0.00 | 66 | 1032.7 |
| 20260831073159 | 52 | 240 | 0.9 | 1.7 | 0.00 | 0.00 | 0.00 | 65 | 1032.8 |
| 20260831072654 | 52 | 219 | 1.7 | 2.6 | 0.00 | 0.00 | 0.00 | 64 | 1032.9 |
| 20260831072151 | 52 | 240 | 0.9 | 1.7 | 0.00 | 0.00 | 0.00 | 63 | 1032.7 |
| 20260831071650 | 53 | 238 | 1.7 | 2.6 | 0.00 | 0.00 | 0.00 | 69 | 1032.8 |
| 20260831071145 | 52 | 249 | 0.0 | 1.7 | 0.00 | 0.00 | 0.00 | 66 | 1032.7 |
| 20260831070644 | 53 | 247 | 0.0 | 1.7 | 0.00 | 0.00 | 0.00 | 69 | 1032.9 |
| 20260831070133 | 55 | 198 | 1.7 | 2.6 | 0.00 | 0.00 | 0.00 | 61 | 1032.8 |
| 20260831065631 | 54 | 236 | 1.7 | 2.6 | 0.00 | 0.00 | 0.00 | 61 | 1032.7 |
| 20260831065125 | 53 | 229 | 1.7 | 2.6 | 0.00 | 0.00 | 0.00 | 66 | 1032.8 |
| 20260831064620 | 53 | 220 | 1.7 | 2.6 | 0.00 | 0.00 | 0.00 | 67 | 1033.1 |
| 20260831064116 | 53 | 218 | 1.7 | 2.6 | 0.00 | 0.00 | 0.00 | 65 | 1033.1 |
| 20260831063612 | 54 | 210 | 1.7 | 2.6 | 0.00 | 0.00 | 0.00 | 64 | 1032.9 |
| 20260831063106 | 53 | 213 | 1.7 | 2.6 | 0.00 | 0.00 | 0.00 | 63 | 1033.1 |
| 20260831062601 | 53 | 210 | 1.7 | 2.6 | 0.00 | 0.00 | 0.00 | 66 | 1033.1 |
| 20260831062100 | 54 | 215 | 1.7 | 2.6 | 0.00 | 0.00 | 0.00 | 61 | 1033.3 |
| 20260831061558 | 55 | 194 | 2.6 | 2.6 | 0.00 | 0.00 | 0.00 | 59 | 1033.5 |
| 20260831061055 | 55 | 246 | 1.7 | 2.6 | 0.00 | 0.00 | 0.00 | 59 | 1033.2 |
| 20260831060550 | 54 | 228 | 1.7 | 3.5 | 0.00 | 0.00 | 0.00 | 62 | 1033.6 |
| 20260831060045 | 55 | 235 | 1.7 | 3.5 | 0.00 | 0.00 | 0.00 | 61 | 1033.3 |
| 20260831055539 | 54 | 203 | 1.7 | 2.6 | 0.00 | 0.10 | 0.10 | 62 | 1033.6 |
| 20260831055035 | 54 | 220 | 1.7 | 5.2 | 0.00 | 0.10 | 0.10 | 62 | 1033.7 |
| 20260831054534 | 54 | 242 | 1.7 | 2.6 | 0.00 | 0.10 | 0.10 | 60 | 1033.9 |
| 20260831054033 | 54 | 221 | 1.7 | 2.6 | 0.00 | 0.10 | 0.10 | 60 | 1033.9 |
| 20260831053532 | 55 | 219 | 1.7 | 2.6 | 0.00 | 0.10 | 0.10 | 59 | 1033.6 |
| 20260831053027 | 55 | 219 | 4.3 | 5.2 | 0.00 | 0.10 | 0.10 | 58 | 1033.7 |
| 20260831052526 | 55 | 236 | 2.6 | 2.6 | 0.00 | 0.10 | 0.10 | 58 | 1033.7 |
| 20260831052021 | 56 | 238 | 2.6 | 3.5 | 0.00 | 0.10 | 0.10 | 58 | 1033.7 |
| 20260831051518 | 56 | 225 | 1.7 | 7.8 | 0.00 | 0.10 | 0.10 | 59 | 1033.6 |
| 20260831051012 | 56 | 259 | 1.7 | 5.2 | 0.00 | 0.10 | 0.10 | 56 | 1033.9 |
| 20260831050512 | 56 | 222 | 2.6 | 5.2 | 0.00 | 0.10 | 0.10 | 57 | 1034.0 |
| 20260831050011 | 56 | 242 | 2.6 | 5.2 | 0.00 | 0.10 | 0.10 | 57 | 1033.9 |
| 20260831045510 | 57 | 237 | 3.5 | 7.8 | 0.00 | 0.10 | 0.10 | 56 | 1034.4 |
| 20260831045006 | 57 | 268 | 4.3 | 6.1 | 0.00 | 0.10 | 0.10 | 55 | 1034.4 |
| 20260831044501 | 57 | 264 | 3.5 | 6.1 | 0.00 | 0.10 | 0.10 | 55 | 1034.6 |
| 20260831043956 | 56 | 219 | 9.6 | 11.3 | 0.00 | 0.10 | 0.10 | 55 | 1034.8 |
| 20260831043455 | 56 | 237 | 1.7 | 1.7 | 0.00 | 0.10 | 0.10 | 62 | 1034.5 |
| 20260831042951 | 57 | 292 | 0.0 | 1.7 | 0.00 | 0.10 | 0.10 | 58 | 1034.8 |
| 20260831042450 | 58 | 225 | 1.7 | 3.5 | 0.00 | 0.10 | 0.10 | 53 | 1034.8 |
| 20260831041945 | 57 | 259 | 2.6 | 3.5 | 0.00 | 0.10 | 0.10 | 54 | 1034.5 |
| 20260831041439 | 57 | 212 | 3.5 | 7.0 | 0.00 | 0.10 | 0.10 | 53 | 1034.4 |
| 20260831040934 | 56 | 224 | 1.7 | 5.2 | 0.00 | 0.10 | 0.10 | 58 | 1034.1 |
| 20260831040429 | 56 | 214 | 2.6 | 2.6 | 0.00 | 0.10 | 0.10 | 55 | 1034.3 |
| 20260831035926 | 56 | 210 | 2.6 | 2.6 | 0.00 | 0.10 | 0.10 | 54 | 1033.9 |
| 20260831035426 | 56 | 224 | 1.7 | 2.6 | 0.00 | 0.10 | 0.10 | 58 | 1034.0 |
| 20260831034921 | 55 | 221 | 1.7 | 1.7 | 0.00 | 0.10 | 0.10 | 60 | 1033.6 |
| 20260831034416 | 57 | 245 | 0.9 | 1.7 | 0.00 | 0.10 | 0.10 | 57 | 1033.6 |
| 20260831033911 | 58 | 222 | 1.7 | 2.6 | 0.00 | 0.10 | 0.10 | 52 | 1033.5 |
| 20260831033407 | 58 | 224 | 1.7 | 3.5 | 0.00 | 0.10 | 0.10 | 49 | 1033.6 |
| 20260831032902 | 58 | 247 | 0.9 | 1.7 | 0.00 | 0.10 | 0.10 | 50 | 1033.3 |
| 20260831032356 | 59 | 208 | 1.7 | 6.1 | 0.00 | 0.10 | 0.10 | 51 | 1033.6 |
| 20260831031852 | 58 | 250 | 1.7 | 3.5 | 0.00 | 0.10 | 0.10 | 50 | 1033.5 |
| 20260831031351 | 57 | 240 | 1.7 | 3.5 | 0.00 | 0.10 | 0.10 | 51 | 1033.5 |
| 20260831030846 | 56 | 234 | 1.7 | 3.5 | 0.00 | 0.10 | 0.10 | 58 | 1033.5 |
| 20260831030344 | 55 | 269 | 0.9 | 2.6 | 0.00 | 0.10 | 0.10 | 56 | 1033.3 |
| 20260831025843 | 54 | 247 | 0.0 | 0.0 | 0.00 | 0.10 | 0.10 | 65 | 1033.5 |
| 20260831025343 | 53 | 250 | 0.0 | 2.6 | 0.00 | 0.10 | 0.10 | 68 | 1033.3 |
| 20260831024838 | 53 | 222 | 1.7 | 2.6 | 0.00 | 0.10 | 0.10 | 64 | 1033.2 |
| 20260831024337 | 54 | 232 | 1.7 | 2.6 | 0.00 | 0.10 | 0.10 | 63 | 1033.2 |
| 20260831023832 | 56 | 202 | 2.6 | 2.6 | 0.00 | 0.10 | 0.10 | 58 | 1032.9 |
| 20260831023330 | 55 | 235 | 1.7 | 5.2 | 0.00 | 0.10 | 0.10 | 58 | 1033.2 |
| 20260831022826 | 55 | 199 | 2.6 | 3.5 | 0.00 | 0.10 | 0.10 | 60 | 1033.3 |
| 20260831022325 | 56 | 224 | 1.7 | 2.6 | 0.00 | 0.10 | 0.10 | 62 | 1033.1 |
| 20260831021820 | 56 | 178 | 4.3 | 6.1 | 0.00 | 0.10 | 0.10 | 58 | 1033.2 |
| 20260831021319 | 56 | 212 | 2.6 | 5.2 | 0.00 | 0.10 | 0.10 | 59 | 1032.9 |
| 20260831020815 | 56 | 218 | 2.6 | 3.5 | 0.00 | 0.10 | 0.10 | 63 | 1033.3 |
| 20260831020315 | 55 | 208 | 2.6 | 3.5 | 0.00 | 0.10 | 0.10 | 64 | 1032.8 |
| 20260831015810 | 54 | 191 | 2.6 | 3.5 | 0.00 | 0.10 | 0.10 | 63 | 1032.7 |
| 20260831015306 | 54 | 208 | 2.6 | 2.6 | 0.00 | 0.10 | 0.10 | 68 | 1032.8 |
| 20260831014800 | 54 | 215 | 2.6 | 2.6 | 0.00 | 0.10 | 0.10 | 69 | 1032.8 |
| 20260831014255 | 54 | 220 | 2.6 | 5.2 | 0.00 | 0.10 | 0.10 | 70 | 1032.5 |
| 20260831013751 | 55 | 217 | 1.7 | 2.6 | 0.00 | 0.10 | 0.10 | 64 | 1032.7 |
| 20260831013250 | 55 | 201 | 1.7 | 2.6 | 0.00 | 0.10 | 0.10 | 65 | 1032.5 |
| 20260831012745 | 56 | 221 | 1.7 | 1.7 | 0.00 | 0.10 | 0.10 | 63 | 1032.4 |
| 20260831012241 | 55 | 244 | 2.6 | 7.0 | 0.00 | 0.10 | 0.10 | 63 | 1032.5 |
| 20260831011740 | 54 | 206 | 2.6 | 2.6 | 0.00 | 0.10 | 0.10 | 67 | 1032.7 |
| 20260831011236 | 54 | 228 | 1.7 | 2.6 | 0.00 | 0.10 | 0.10 | 72 | 1032.5 |
| 20260831010731 | 55 | 205 | 2.6 | 3.5 | 0.00 | 0.10 | 0.10 | 71 | 1032.5 |
| 20260831010225 | 55 | 211 | 2.6 | 2.6 | 0.00 | 0.10 | 0.10 | 70 | 1032.7 |
| 20260831005721 | 57 | 237 | 1.7 | 1.7 | 0.00 | 0.10 | 0.10 | 71 | 1032.8 |
| 20260831005216 | 57 | 275 | 0.0 | 0.0 | 0.00 | 0.10 | 0.10 | 64 | 1032.5 |
| 20260831004711 | 59 | 237 | 0.0 | 0.0 | 0.00 | 0.10 | 0.10 | 64 | 1032.7 |
| 20260831004208 | 60 | 268 | 0.0 | 0.9 | 0.00 | 0.10 | 0.10 | 57 | 1032.5 |
| 20260831003703 | 60 | 271 | 1.7 | 2.6 | 0.00 | 0.10 | 0.10 | 51 | 1032.8 |
| 20260831003159 | 60 | 274 | 0.0 | 1.7 | 0.00 | 0.10 | 0.10 | 52 | 1032.5 |
| 20260831002658 | 61 | 265 | 1.7 | 7.0 | 0.00 | 0.10 | 0.10 | 51 | 1032.4 |
| 20260831002152 | 62 | 259 | 6.1 | 9.6 | 0.00 | 0.10 | 0.10 | 52 | 1032.4 |
| 20260831001649 | 62 | 260 | 0.9 | 1.7 | 0.00 | 0.10 | 0.10 | 51 | 1032.7 |
| 20260831001144 | 62 | 11 | 1.7 | 1.7 | 0.00 | 0.10 | 0.10 | 50 | 1032.3 |
| 20260831000640 | 63 | 322 | 4.3 | 5.2 | 0.00 | 0.10 | 0.10 | 52 | 1032.5 |
| 20260831000134 | 63 | 56 | 1.7 | 5.2 | 0.00 | 0.10 | 0.10 | 49 | 1032.1 |
| 20260830235633 | 63 | 300 | 1.7 | 2.6 | 0.00 | 0.10 | 0.10 | 50 | 1032.4 |
| 20260830235128 | 64 | 266 | 0.0 | 5.2 | 0.00 | 0.10 | 0.10 | 45 | 1032.5 |
| 20260830234623 | 65 | 358 | 1.7 | 3.5 | 0.00 | 0.10 | 0.10 | 46 | 1032.5 |
| 20260830234119 | 67 | 244 | 0.0 | 0.0 | 0.00 | 0.10 | 0.10 | 42 | 1032.4 |
| 20260830233614 | 65 | 233 | 0.0 | 1.7 | 0.00 | 0.10 | 0.10 | 43 | 1032.4 |
| 20260830233110 | 65 | 218 | 0.9 | 0.9 | 0.00 | 0.10 | 0.10 | 48 | 1032.5 |
| 20260830232606 | 62 | 239 | 0.0 | 0.0 | 0.00 | 0.10 | 0.10 | 59 | 1032.3 |
| 20260830232102 | 62 | 234 | 0.9 | 0.9 | 0.00 | 0.10 | 0.10 | 63 | 1032.4 |
| 20260830231557 | 62 | 230 | 0.9 | 1.7 | 0.00 | 0.10 | 0.10 | 57 | 1032.4 |
| 20260830231056 | 59 | 228 | 0.9 | 2.6 | 0.00 | 0.10 | 0.10 | 53 | 1032.3 |
| 20260830230552 | 60 | 250 | 0.9 | 0.9 | 0.00 | 0.10 | 0.10 | 75 | 1032.4 |
| 20260830230046 | 60 | 228 | 1.7 | 2.6 | 0.00 | 0.10 | 0.10 | 64 | 1032.3 |
| 20260830225542 | 60 | 250 | 0.0 | 1.7 | 0.00 | 0.10 | 0.10 | 62 | 1032.3 |
| 20260830225041 | 60 | 130 | 3.5 | 6.1 | 0.00 | 0.10 | 0.10 | 62 | 1032.3 |
| 20260830224539 | 60 | 133 | 3.5 | 3.5 | 0.00 | 0.10 | 0.10 | 62 | 1032.4 |
| 20260830224037 | 62 | 247 | 0.0 | 2.6 | 0.00 | 0.10 | 0.10 | 55 | 1032.1 |
| 20260830223533 | 62 | 256 | 0.0 | 3.5 | 0.00 | 0.10 | 0.10 | 61 | 1032.4 |
| 20260830223033 | 60 | 230 | 0.9 | 0.9 | 0.00 | 0.10 | 0.10 | 59 | 1032.1 |
| 20260830222527 | 61 | 235 | 0.9 | 0.9 | 0.00 | 0.10 | 0.10 | 65 | 1032.4 |
| 20260830222023 | 60 | 258 | 1.7 | 2.6 | 0.00 | 0.10 | 0.10 | 61 | 1032.4 |
| 20260830221519 | 59 | 257 | 0.9 | 1.7 | 0.00 | 0.10 | 0.10 | 65 | 1032.4 |
| 20260830221010 | 59 | 247 | 0.9 | 6.1 | 0.00 | 0.10 | 0.10 | 66 | 1032.3 |
| 20260830220509 | 59 | 264 | 1.7 | 5.2 | 0.00 | 0.10 | 0.10 | 63 | 1032.4 |
| 20260830220008 | 58 | 251 | 2.6 | 7.0 | 0.00 | 0.10 | 0.10 | 64 | 1032.5 |
| 20260830215502 | 57 | 235 | 1.7 | 7.0 | 0.00 | 0.10 | 0.10 | 69 | 1032.4 |
| 20260830214956 | 56 | 247 | 3.5 | 7.8 | 0.00 | 0.10 | 0.10 | 72 | 1032.1 |
| 20260830214451 | 55 | 234 | 2.6 | 7.8 | 0.00 | 0.10 | 0.10 | 74 | 1032.4 |
| 20260830213946 | 54 | 282 | 3.5 | 5.2 | 0.00 | 0.10 | 0.10 | 74 | 1032.3 |
| 20260830213441 | 53 | 263 | 1.7 | 12.2 | 0.00 | 0.10 | 0.10 | 76 | 1032.4 |
| 20260830212937 | 53 | 251 | 0.9 | 5.2 | 0.00 | 0.10 | 0.10 | 77 | 1032.7 |
| 20260830212432 | 53 | 263 | 2.6 | 8.7 | 0.00 | 0.10 | 0.10 | 79 | 1032.5 |
| 20260830211932 | 52 | 293 | 1.7 | 13.9 | 0.00 | 0.10 | 0.10 | 80 | 1032.9 |
| 20260830211427 | 52 | 239 | 7.0 | 11.3 | 0.00 | 0.10 | 0.10 | 79 | 1033.1 |
| 20260830210922 | 51 | 223 | 2.6 | 7.8 | 0.00 | 0.10 | 0.10 | 85 | 1033.2 |
| 20260830210421 | 50 | 261 | 3.5 | 9.6 | 0.07 | 0.10 | 0.10 | 86 | 1033.2 |
| 20260830205919 | 50 | 223 | 9.6 | 16.5 | 0.07 | 0.10 | 0.10 | 83 | 1033.1 |
| 20260830205418 | 50 | 215 | 3.5 | 11.3 | 0.00 | 0.09 | 0.09 | 86 | 1032.9 |
| 20260830204914 | 51 | 289 | 7.0 | 20.0 | 0.00 | 0.09 | 0.09 | 83 | 1033.1 |
| 20260830204412 | 51 | 286 | 5.2 | 6.1 | 0.05 | 0.09 | 0.09 | 84 | 1033.1 |
| 20260830203907 | 51 | 225 | 1.7 | 8.7 | 0.05 | 0.09 | 0.09 | 84 | 1032.9 |
| 20260830203404 | 50 | 259 | 3.5 | 11.3 | 0.24 | 0.08 | 0.08 | 84 | 1032.9 |
| 20260830202857 | 50 | 262 | 3.5 | 7.0 | 0.47 | 0.08 | 0.08 | 86 | 1032.9 |
| 20260830202353 | 52 | 284 | 7.0 | 8.7 | 0.17 | 0.03 | 0.03 | 81 | 1032.8 |
| 20260830201848 | 58 | 331 | 14.8 | 19.1 | 0.00 | 0.00 | 0.00 | 63 | 1032.9 |
| 20260830201348 | 60 | 325 | 5.2 | 8.7 | 0.00 | 0.00 | 0.00 | 64 | 1032.8 |
| 20260830200843 | 61 | 275 | 1.7 | 6.1 | 0.00 | 0.00 | 0.00 | 62 | 1032.4 |
| 20260830200343 | 62 | 19 | 1.7 | 6.1 | 0.00 | 0.00 | 0.00 | 62 | 1032.0 |
| 20260830195838 | 63 | 329 | 1.7 | 6.1 | 0.00 | 0.00 | 0.00 | 59 | 1032.0 |
| 20260830195332 | 64 | 323 | 5.2 | 9.6 | 0.00 | 0.00 | 0.00 | 57 | 1032.0 |
| 20260830194831 | 65 | 287 | 0.9 | 1.7 | 0.00 | 0.00 | 0.00 | 63 | 1031.9 |
| 20260830194324 | 67 | 271 | 0.9 | 3.5 | 0.00 | 0.00 | 0.00 | 48 | 1031.6 |
| 20260830193820 | 67 | 238 | 0.9 | 2.6 | 0.00 | 0.00 | 0.00 | 46 | 1031.2 |
| 20260830193314 | 69 | 271 | 1.7 | 1.7 | 0.00 | 0.00 | 0.00 | 50 | 1031.2 |
| 20260830192810 | 69 | 257 | 0.0 | 1.7 | 0.00 | 0.00 | 0.00 | 46 | 1031.1 |
| 20260830192309 | 68 | 359 | 2.6 | 5.2 | 0.00 | 0.00 | 0.00 | 47 | 1031.1 |
| 20260830191805 | 68 | 273 | 2.6 | 3.5 | 0.00 | 0.00 | 0.00 | 43 | 1031.1 |